Weather in Krasny

Russia / Ulyanovsk Oblast     53°08′32″N   48°03′35″E
temp.,
°C
wind,
m/s
gust,
m/s
humid.,
%
clouds,
%
prec.,
mm/h
press.,
hPa
HPBL,
m
17 april, sat
sat1701:00+11ne5118261 0.0 1020244
04:00+9ne488999 0.0 1021176
07:00+9ne499016 0.0 1022224
10:00+13ene68715 0.0 1022481
13:00+17ene67555 0.0 1021943
16:00+18ene56490 0.0 10211423
19:00+15ne696069 0.0 1020401
22:00+12ene6136184 0.0 1021324
18 april, sun
sun1801:00+10ene51165100 0.0 1020261
04:00+8ne61265100 0.0 1020263
07:00+8ene51165100 0.0 1020345
10:00+10ene6955100 0.1 1020538
13:00+13e6848100 0.0 10201150
16:00+11ne4766100 0.5 1020387
19:00+9nne3684100 1.3 1021221
22:00+9ene51170100 1.6 1021468
19 april, mon
mon1901:00+9ene51066100 0.0 1022458
04:00+7ene61081100 0.2 1023549
07:00+5ene61072100 0.1 1024538
10:00+7ene7963100 0.1 1024711
13:00+10ene785699 0.0 10241312
16:00+8ene7965100 0.0 10251207
19:00+6e71079100 0.0 1026876
22:00+4e61184100 0.0 1027761
20 april, tue
tue2001:00+3e71289100 0.0 1027735
04:00+3e61291100 0.1 1028653
07:00+3e8127299 0.1 1028698
10:00+4ese9126170 0.1 1028775
13:00+9ese9115558 0.0 10271158
16:00+10ese10125367 0.0 10261364
19:00+9ese91357100 0.0 10241148
22:00+7ese81555100 0.0 1025835
21 april, wed
wed2101:00+6ese81653100 0.0 1024720
04:00+6se81652100 0.0 1024721
07:00+5se91755100 0.0 1023664
10:00+5se81662100 0.4 1024766
13:00+4se71578100 1.5 1025762
16:00+4sse71480100 2.3 1026791
19:00+4se61386100 0.4 1026673
22:00+5sse51290100 1.4 1026637